User: anonymous   Login
Location: Unspecified
(0.0000°N, 0.0000°E)
Time: 02:50:06
(UTC+00:00)
Language:

N. Korean satellite - Orbit

View from above orbital plane
View from above orbital plane
View from above satellite
View from above satellite

Ground track
Ground track

The orbit data is extracted from the following two-line orbital elements,

1 39026U 12072A   17202.51277918 +.00001904 +00000-0 +76022-4 0  9999
2 39026 097.2224 219.1816 0041962 057.0245 303.5017 15.25550647255169
Epoch (UTC): 21 July 2017 12:18:24
Eccentricity: 0.0041962
inclination: 97.2224°
perigee height: 460 km
apogee height: 518 km
right ascension of ascending node: 219.1816°
argument of perigee: 57.0245°
revolutions per day: 15.25550647
mean anomaly at epoch: 303.5017°
orbit number at epoch: 25516

The dashed part of the orbit path shows where the satellite is in the earth's shadow,  

DLR